CZ-6A DEB, 54300

Orbit data source: Space-Track

CZ-6A DEB, 54300 is space debris in SSO originally from a launch on Fri, 11 Nov 2022 UTC launched from the Taiyaun Space Center, China (TSC). Debris objects in space refer to the collection of defunct objects orbiting the Earth. Examples of debris include non-operational satellites, rocket bodies, and fragments generated from explosions, collisions, or faulty payload assembly.

Loading next visibility...
Identifier
54300, 2022-151AT
Orbit
SSO
Country
Flag of CNCN / PRC
Related business
Manufacturer
SAST
Mission
Spacecraft
Bus & Motor
Unknown
Mass
Unknown
Launch date (UTC)
2022-11-11 (4 years ago)
Launch vehicle
Unknown
Launch site
Taiyaun Space Center, China (TSC)
Object type
Payload
Rocket body
Debris
Shape & HBR
Unknown shape, 0.2 m
Radar Cross Section
Medium (>0.1 m² and <1 m²)

Expand to show TLE details & history
Last TLE update: 3 days ago

TLE from 3 days ago
0 CZ-6A DEB
1 54300U 22151AT  26170.56055151  .00000596  00000-0  35119-3 0  9999
2 54300  98.8927 180.8918 0056166 309.6025  50.0195 14.10984308184697
Epoch: 2026-06-19T13:27Z
TLE epoch observation values (Epoch: 2026-06-19T13:27:11.650Z)
Latitude
0.00004°
Longitude
71.30548°
Altitude
832.925 km
Speed
7.45 km/s
True Right ascension
12h 03m 34s
True Declination
0° 00' 00"
Sunlit
Object was in daylight at epoch
Visualization orbit readout
Latitude
Unknown
Longitude
Unknown
Altitude
Unknown
Speed
Unknown
Apparent Right ascension
Unknown
Apparent Declination
Unknown
Sunlit
N/A
Visualization observer readout
Local Sidereal Time
21:54:55
Azimuth
Unknown
Elevation
Unknown
Doppler factor
Unknown
Orbital elements
Apogee altitude
893.8 km
Perigee altitude
812.569 km
Semi-major axis
7,231.322 km
Eccentricity
0.00562
Inclination
98.8927°
RAAN
180.8918°
Arg. of periapsis
309.6025°
True anomaly
50.51491°
Mean anomaly
50.0195°
Eccentric anomaly
50.26698°
Mean motion
3.52953 °/min
Orbital period
102 mins
BSTAR
0.00035119
Loading maneuver chart data...
Computing Atmospheric mass density...
Loading historical data...
Loading historical data...
Loading historical data...
Loading historical data...
Loading historical data...
Loading historical data...
Loading historical data...

Documentation

Showing up to 5 results
|